CW1735 Weather Reports


time (UTC)temp
C
wind
direction
speed
KPH
gust
KPH
rain 1hr
cm
rain 24hr
cm
rain mn
cm
humidity
%
barometer
mb
20260504050153 5 212 0.0 0.0 0.00 0.00 0.00 66 1008.4
20260504045054 5 212 0.0 0.0 0.00 0.00 0.00 66 1008.3
20260504044554 5 212 0.0 0.0 0.00 0.00 0.00 66 1008.3
20260504043556 5 212 0.0 0.0 0.00 0.00 0.00 67 1008.3
20260504043057 5 212 0.0 0.0 0.00 0.00 0.00 68 1008.3
20260504042556 5 212 0.0 0.0 0.00 0.00 0.00 69 1008.2
20260504042057 5 212 0.0 0.0 0.00 0.00 0.00 69 1008.2
20260504041557 5 212 0.0 0.0 0.00 0.00 0.00 68 1008.2
20260504041057 5 212 0.0 0.0 0.00 0.00 0.00 69 1008.0
20260504040558 5 212 0.0 0.0 0.00 0.00 0.00 69 1008.0
20260504035558 5 212 0.0 0.0 0.00 0.00 0.00 68 1007.8
20260504034600 5 212 0.0 0.0 0.00 0.00 0.00 68 1007.8
20260504034100 5 212 0.0 0.0 0.00 0.00 0.00 67 1007.9
20260504033102 6 212 0.0 0.0 0.00 0.00 0.00 66 1008.0
20260504032101 6 212 0.0 0.0 0.00 0.00 0.00 64 1007.9
20260504031602 6 212 0.0 0.0 0.00 0.00 0.00 64 1007.9
20260504031102 6 212 0.0 0.0 0.00 0.00 0.00 66 1007.8
20260504030603 6 212 0.0 0.0 0.00 0.00 0.00 66 1007.8
20260504030203 6 212 0.0 0.0 0.00 0.00 0.00 66 1007.8
20260504025604 6 212 0.0 0.0 0.00 0.00 0.00 65 1007.9
20260504025105 6 212 0.0 0.0 0.00 0.00 0.00 64 1007.9
20260504024605 6 212 0.0 0.0 0.00 0.00 0.00 63 1007.9
20260504024105 6 212 0.0 0.0 0.00 0.00 0.00 61 1007.8
20260504023605 6 212 0.0 0.0 0.00 0.00 0.00 60 1007.8
20260504023106 7 212 0.0 0.0 0.00 0.00 0.00 59 1007.9
20260504022606 7 212 0.0 0.0 0.00 0.00 0.00 59 1008.0
20260504022109 7 212 0.0 0.0 0.00 0.00 0.00 58 1008.0
20260504021607 7 212 0.0 0.0 0.00 0.00 0.00 57 1008.0
20260504021108 7 212 0.0 0.0 0.00 0.00 0.00 56 1008.0
20260504020608 7 212 0.0 0.0 0.00 0.00 0.00 55 1008.0
20260504015609 7 212 0.0 0.0 0.00 0.00 0.00 53 1007.9
20260504015109 7 212 0.0 0.0 0.00 0.00 0.00 55 1007.9
20260504014110 8 212 0.0 0.0 0.00 0.00 0.00 55 1007.8
20260504013610 8 212 0.0 0.0 0.00 0.00 0.00 54 1007.8
20260504012111 9 212 0.0 0.0 0.00 0.00 0.00 48 1007.7
20260504011612 9 212 0.0 0.0 0.00 0.00 0.00 46 1007.7
20260504011112 9 212 0.0 0.0 0.00 0.00 0.00 44 1007.5
20260504010613 10 212 0.0 0.0 0.00 0.00 0.00 44 1007.5
20260504005114 10 212 0.0 0.0 0.00 0.00 0.00 43 1007.3
20260504004615 10 212 0.0 0.0 0.00 0.00 0.00 41 1007.3
20260504004115 11 212 0.0 0.0 0.00 0.00 0.00 40 1007.2
20260504003116 11 212 0.0 0.0 0.00 0.00 0.00 37 1007.2
20260504002616 11 212 0.0 0.0 0.00 0.00 0.00 37 1007.1
20260504001617 12 224 0.0 0.0 0.00 0.00 0.00 35 1007.1
20260504001117 12 215 0.0 0.0 0.00 0.00 0.00 36 1006.9
20260504000618 12 219 0.0 0.0 0.00 0.00 0.00 35 1006.9
20260503235119 12 253 0.0 0.0 0.00 0.00 0.00 34 1006.8
20260503234619 12 234 0.0 0.0 0.00 0.00 0.00 33 1006.7
20260503233051 13 243 0.0 0.0 0.00 0.00 0.00 32 1006.6
20260503232121 13 322 0.0 0.0 0.00 0.00 0.00 31 1006.5
20260503231552 13 230 0.0 0.0 0.00 0.00 0.00 31 1006.5
20260503231122 13 295 0.0 0.0 0.00 0.00 0.00 32 1006.4
20260503230623 13 264 0.0 0.0 0.00 0.00 0.00 31 1006.4
20260503225623 13 215 0.0 0.0 0.00 0.00 0.00 31 1006.3
20260503225053 13 281 0.0 0.0 0.00 0.00 0.00 31 1006.3
20260503224056 13 333 0.0 0.0 0.00 0.00 0.00 31 1006.3
20260503223625 13 302 0.0 0.0 0.00 0.00 0.00 30 1006.3
20260503223055 13 313 0.0 0.0 0.00 0.00 0.00 30 1006.3
20260503222556 13 282 0.0 0.0 0.00 0.00 0.00 30 1006.3
20260503222057 13 244 0.0 0.0 0.00 0.00 0.00 31 1006.3
20260503221558 13 357 0.0 0.0 0.00 0.00 0.00 31 1006.3
20260503221057 13 0 0.0 0.0 0.00 0.00 0.00 32 1006.2
20260503220558 13 352 0.0 0.0 0.00 0.00 0.00 30 1006.2
20260503215559 13 289 0.0 0.0 0.00 0.00 0.00 30 1006.2
20260503215059 13 350 0.0 0.0 0.00 0.00 0.00 30 1006.2
20260503214559 13 222 0.0 0.0 0.00 0.00 0.00 30 1006.2
20260503214100 13 352 0.0 0.0 0.00 0.00 0.00 30 1006.2
20260503213600 13 356 0.0 0.0 0.00 0.00 0.00 30 1006.2
20260503213100 13 326 0.0 0.0 0.00 0.00 0.00 31 1006.2
20260503212601 13 352 0.0 0.0 0.00 0.00 0.00 31 1006.2
20260503211602 13 248 0.0 0.0 0.00 0.00 0.00 30 1006.1
20260503211103 13 268 0.0 0.0 0.00 0.00 0.00 30 1006.2
20260503210602 13 250 0.0 0.0 0.00 0.00 0.00 29 1006.2
20260503210103 13 282 0.0 0.0 0.00 0.00 0.00 30 1006.2
20260503205603 13 301 0.0 0.0 0.00 0.00 0.00 31 1006.3
20260503205104 13 17 0.0 0.0 0.00 0.00 0.00 31 1006.3
20260503204604 12 232 0.0 0.0 0.00 0.00 0.00 30 1006.2
20260503204106 12 236 0.0 0.0 0.00 0.00 0.00 30 1006.3
20260503203606 12 6 0.0 0.0 0.00 0.00 0.00 30 1006.3
20260503203106 12 227 0.0 0.0 0.00 0.00 0.00 29 1006.3
20260503202606 12 263 0.0 0.0 0.00 0.00 0.00 30 1006.4
20260503202107 13 294 0.0 0.0 0.00 0.00 0.00 30 1006.4
20260503201607 12 1 0.0 0.0 0.00 0.00 0.00 30 1006.4
20260503201107 12 268 0.0 0.0 0.00 0.00 0.00 31 1006.5
20260503200608 12 282 0.0 0.0 0.00 0.00 0.00 31 1006.5
20260503195109 12 333 0.0 0.0 0.00 0.00 0.00 32 1006.8
20260503194617 12 278 0.0 0.0 0.00 0.00 0.00 32 1006.8
20260503194111 12 296 0.0 0.0 0.00 0.00 0.00 31 1006.6
20260503193111 12 329 0.0 0.0 0.00 0.00 0.00 32 1006.6
20260503192112 12 0 0.0 0.0 0.00 0.00 0.00 33 1006.7
20260503191612 11 344 0.0 0.0 0.00 0.00 0.00 35 1006.7
20260503191113 11 359 0.0 0.0 0.00 0.00 0.00 34 1006.7
20260503190614 12 271 0.0 0.0 0.00 0.00 0.00 34 1006.7
20260503185614 11 340 0.0 0.0 0.00 0.00 0.00 34 1007.0
20260503185114 11 344 0.0 0.0 0.00 0.00 0.00 33 1007.0
20260503184614 11 240 0.0 0.0 0.00 0.00 0.00 35 1007.0
20260503184115 10 344 0.0 0.0 0.00 0.00 0.00 35 1007.2
20260503183115 11 357 0.0 0.0 0.00 0.00 0.00 35 1007.2
20260503181618 10 322 0.0 0.0 0.00 0.00 0.00 34 1007.1
20260503181117 10 352 0.0 0.0 0.00 0.00 0.00 36 1007.2
20260503180618 10 357 0.0 0.0 0.00 0.00 0.00 38 1007.1
20260503180148 10 336 0.0 0.0 0.00 0.00 0.00 36 1007.2
20260503175618 10 13 0.0 0.0 0.00 0.00 0.00 36 1007.2
20260503175119 10 291 0.0 0.0 0.00 0.00 0.00 36 1007.2
20260503174619 10 280 0.0 0.0 0.00 0.00 0.00 38 1007.2
20260503174120 10 24 0.0 0.0 0.00 0.00 0.00 38 1007.6
20260503173620 10 282 0.0 0.0 0.00 0.00 0.00 37 1007.6
20260503173120 10 270 0.0 0.0 0.00 0.00 0.00 38 1007.6
20260503172053 10 272 0.0 0.0 0.00 0.00 0.00 38 1007.6
20260503171622 10 253 0.0 0.0 0.00 0.00 0.00 38 1007.6
20260503171052 10 263 0.0 0.0 0.00 0.00 0.00 41 1007.7
20260503170623 8 329 0.0 0.0 0.00 0.00 0.00 40 1007.6
20260503150603 7 0 0.0 0.0 0.00 0.00 0.00 45 1008.2
20260503140208 7 282 0.0 0.0 0.00 0.00 0.00 49 1008.0
20260503130613 6 342 0.0 0.0 0.00 0.00 0.00 52 1008.0
20260503130214 6 237 0.0 0.0 0.00 0.00 0.00 53 1008.0
20260503110554 4 337 0.0 0.0 0.00 0.00 0.00 63 1007.2
20260503110153 4 13 0.0 0.0 0.00 0.00 0.00 63 1007.2
20260503090203 5 352 0.0 0.0 0.00 0.03 0.00 59 1006.4
20260503081608 5 352 0.0 0.0 0.00 0.03 0.00 56 1006.5
20260503080608 5 6 0.0 0.0 0.00 0.03 0.00 55 1006.5
20260503072611 6 7 0.0 0.0 0.00 0.03 0.00 55 1006.3
20260503072111 6 0 0.0 0.0 0.00 0.03 0.00 55 1006.3
20260503071612 6 359 0.0 0.0 0.00 0.03 0.00 56 1006.3
20260503071142 6 23 0.0 0.0 0.00 0.03 0.00 55 1006.3
20260503060147 6 13 0.0 0.0 0.00 0.03 0.00 52 1006.5
20260503055120 6 308 0.0 0.0 0.00 0.03 0.00 51 1006.5
20260503054619 7 0 0.0 0.0 0.00 0.03 0.00 51 1006.5
20260503053050 7 350 0.0 0.0 0.00 0.03 0.00 49 1006.7